Location: Arborea
(39.7744°N, 8.5819°E)
Time: 01:10:57
(UTC+00:00)

Cosmos 1000 Rocket - Pass Details

Date: 03 October 2023
Orbit: 952 x 993 km, 82.9° (Epoch: 03 December)

Event Time Altitude Azimuth Distance (km) Brightness Sun altitude
Exits shadow 22:07:00 10° 323° (NW) 2,749 7.3 -51.2°
Drops below altitude 10° 22:07:05 10° 324° (NW) 2,763 7.3 -51.2°
Sets 22:11:09 0° 349° (N) 3,716 8.1 -51.6°
